Terminal Aerodrome Forecast
Issued by NWS

Home | Current Version | Previous Version | Text Only | Print | Product List | Glossary On
Versions: 1 2 3 4 5 6 7 8 9 10 11 12 13 14 15 16 17 18 19 20 21 22 23 24 25 26 27 28 29
000
FTUS45 KCYS 201100
TAFRWL
TAF
KRWL 201127Z 2012/2112 21009KT P6SM VCSH SCT025 OVC035
     FM201500 24014G22KT P6SM OVC050
     FM201900 24014G24KT P6SM VCTS SCT050CB BKN080
     FM210200 24008KT P6SM BKN150=

USA.gov is the U.S. government's official web portal to all federal, state and local government web resources and services.